Guernsey, United Kingdom

1:57 AM GMT on December 12, 2017 (GMT +0000)
Guernsey

Weather History for EGJB - September, 2013

Change the Weather History Date:

Thursday, September 26, 2013

  Actual Average Record
Temperature  
Mean Temperature 64 °F -  
Max Temperature 69 °F 58 °F 69 °F (2013)
Min Temperature 58 °F 52 °F 48 °F (2007)
Degree Days  
Heating Degree Days 2    
Growing Degree Days 14 (Base 50)    
Moisture  
Dew Point 61 °F    
Average Humidity 92    
Maximum Humidity 100    
Minimum Humidity 72    
Precipitation  
Precipitation 0.00 in - - ()
Sea Level Pressure  
Sea Level Pressure 29.95 in    
Wind  
Wind Speed 5 mph ()    
Max Wind Speed 13 mph    
Max Gust Speed -    
Visibility 3.2 miles    
Events Fog , Rain    
Averages and records for this station are not official NWS values.
T = Trace of Precipitation, MM = Missing Value Source: Averaged Metar Reports

Daily Weather History Graph

Daily Weather History Graph

Search for Another Location

Airport or City:

Trip Planner

Search our weather history database for the weather conditions in past years. The results will help you decide how hot, cold, wet, or windy it might be!

Date:

Astronomy

Sep. 26, 2013 Rise Set
Actual Time 7:02 AM BST 6:59 PM BST
Civil Twilight 6:30 AM BST 7:31 PM BST
Nautical Twilight 5:53 AM BST 8:08 PM BST
Astronomical Twilight 5:15 AM BST 8:46 PM BST
Moon 11:17 PM BST (9/26) 2:12 PM BST (9/26)
Length of Visible Light 13h 00m
Length of Day
11h 56m
Waning Gibbous, 57% of the Moon is Illuminated
Sep 26
Waning Gibbous
Sep 27
Last Quarter
Oct 5
New
Oct 12
First Quarter
Oct 19
Full

Hourly Weather History & Observations

Time (BST) Temp. Dew Point Humidity Pressure Visibility Wind Dir Wind Speed Gust Speed Precip Events Conditions
1:00 AM 61 °F 60 °F 97% 29.92 in 0 mi West 2.3 mph - - Fog Partial Fog
3:50 AM 60.8 °F 60.8 °F 100% 29.92 in 3.7 mi Calm Calm - N/A   Mostly Cloudy
4:00 AM 61 °F 61 °F 100% 29.92 in 4 mi Calm Calm - - Rain Light Rain Showers
4:20 AM 60.8 °F 60.8 °F 100% 29.92 in 0.9 mi Calm Calm - N/A Rain Light Rain Showers
4:50 AM 60.8 °F 60.8 °F 100% 29.92 in 3.7 mi Calm Calm - N/A   Scattered Clouds
5:20 AM 60.8 °F 60.8 °F 100% 29.92 in 3.7 mi Calm Calm - N/A   Partly Cloudy
5:50 AM 60.8 °F 60.8 °F 100% 29.92 in 2.2 mi Calm Calm - N/A   Partly Cloudy
6:20 AM 60.8 °F 59.0 °F 94% 29.92 in 2.2 mi Calm Calm - N/A Fog Fog
6:50 AM 59.0 °F 59.0 °F 100% 29.92 in 1.6 mi East 3.5 mph - N/A   Partly Cloudy
7:00 AM 58 °F 58 °F 100% 29.94 in 2 mi East 3.5 mph - -   Mist
7:20 AM 59.0 °F 59.0 °F 100% 29.92 in 0.1 mi ENE 3.5 mph - N/A Fog Fog
7:50 AM 59.0 °F 59.0 °F 100% 29.95 in 0.1 mi ENE 3.5 mph - N/A Fog Fog
8:20 AM 60.8 °F 60.8 °F 100% 29.95 in 0.0 mi ENE 4.6 mph - N/A Fog Fog
8:50 AM 60.8 °F 60.8 °F 100% 29.95 in 0.3 mi East 4.6 mph - N/A Fog Fog
9:20 AM 60.8 °F 60.8 °F 100% 29.95 in 0.3 mi East 6.9 mph - N/A Fog Fog
9:50 AM 62.6 °F 62.6 °F 100% 29.95 in 1.9 mi East 8.1 mph - N/A   Partly Cloudy
10:00 AM 63 °F 63 °F 98% 29.97 in 2 mi East 8.1 mph - - Fog Light Fog
10:20 AM 64.4 °F 62.6 °F 94% 29.98 in 3.1 mi East 10.4 mph - N/A   Mist
10:50 AM 64.4 °F 62.6 °F 94% 29.98 in 2.2 mi East 10.4 mph - N/A   Partly Cloudy
11:20 AM 66.2 °F 62.6 °F 88% 29.98 in 3.1 mi East 11.5 mph - N/A   Haze
11:50 AM 64.4 °F 60.8 °F 88% 29.98 in 3.7 mi ESE 9.2 mph - N/A   Partly Cloudy
12:20 PM 66.2 °F 62.6 °F 88% 29.98 in 3.7 mi ESE 11.5 mph - N/A   Partly Cloudy
12:50 PM 68.0 °F 62.6 °F 83% 29.98 in 4.3 mi East 11.5 mph - N/A   Partly Cloudy
1:00 PM 67 °F 63 °F 83% 29.97 in 4 mi East 11.5 mph - -   Haze
1:20 PM 68.0 °F 62.6 °F 83% 29.98 in 5.0 mi East 10.4 mph - N/A   Scattered Clouds
1:50 PM 68.0 °F 62.6 °F 83% 29.98 in 5.6 mi East 11.5 mph - N/A   Mostly Cloudy
2:20 PM 68.0 °F 62.6 °F 83% 29.98 in 5.6 mi East 12.7 mph - N/A   Partly Cloudy
2:50 PM 68.0 °F 62.6 °F 83% 29.95 in 6.2 mi East 12.7 mph - N/A   Partly Cloudy
3:20 PM 68.0 °F 62.6 °F 83% 29.95 in 5.6 mi ENE 8.1 mph - N/A   Partly Cloudy
3:50 PM 69.8 °F 62.6 °F 78% 29.95 in 6.2 mi ENE 10.4 mph - N/A   Partly Cloudy
4:00 PM 69 °F 62 °F 72% 29.95 in 6 mi ENE 10.4 mph - -   Scattered Clouds
4:20 PM 66.2 °F 60.8 °F 83% 29.95 in 5.6 mi ENE 10.4 mph - N/A   Unknown
4:50 PM 66.2 °F 60.8 °F 83% 29.95 in 5.6 mi ENE 11.5 mph - N/A   Unknown
5:20 PM 66.2 °F 60.8 °F 83% 29.95 in 5.6 mi ENE 9.2 mph - N/A   Unknown
5:50 PM 64.4 °F 60.8 °F 88% 29.95 in 4.3 mi ENE 10.4 mph - N/A   Unknown
6:20 PM 62.6 °F 60.8 °F 94% 29.95 in 3.1 mi ENE 9.2 mph - N/A   Haze
6:50 PM 62.6 °F 60.8 °F 94% 29.95 in 2.8 mi ENE 9.2 mph - N/A   Haze
7:00 PM 62 °F 61 °F 94% 29.95 in 3 mi ENE 9.2 mph - -   Haze
7:20 PM 62.6 °F 60.8 °F 94% 29.95 in - East 12.7 mph - N/A   Haze
7:50 PM 62.6 °F 60.8 °F 94% 29.95 in 2.8 mi East 12.7 mph - N/A   Haze
8:20 PM 62.6 °F 60.8 °F 94% 29.95 in 3.1 mi ENE 11.5 mph - N/A   Haze
8:50 PM 62.6 °F 60.8 °F 94% 29.95 in 3.1 mi East 12.7 mph - N/A   Mist
10:00 PM 61 °F 60 °F 96% 29.96 in 4 mi East 11.5 mph - -   Mist